Find TDRS 10

NORAD ID: 27566 Int'l Des: 2002-055 Owner: GSFC Country: US operational
HEOCIRCULAR

当前视图

正在加载3D地球...

关于 TDRS 10

正在加载描述...

即将过境

Passes for default location (London). Set your location on the main map for personalized predictions.

高度历史

Loading altitude history...

两行轨道根数

1 27566U 02055A 26150.58416727 -.00000269 00000-0 00000-0 0 9990
2 27566 10.0557 43.1840 0011660 250.4835 314.8935 0.98865127 86022
Epoch: May 30, 2026 • Age: 24 hours

当前状态

高度 36149.2 km
速度 3.06 km/s
星下点 -4.71°S, 144.56°E
发射日期 Dec 5, 2002
运行时间 23.4 years
类型 other

技术详情

分类 Payload
质量 3189.00 kg
干质量 1514.00 kg
总质量 3189.00 kg
长度 8.40 m
直径 3.40 m
跨度 21.00 m
形状 Box + 2 Pan + 2 Dish
制造商 BOES
平台类型 HS-601
阶段状态 In Orbit
所有者/国家 GSFC/US

Most Searched